TURKMENALEM52E/MONACOSAT

Last updated on Wed Sep 09 2026 00:03:00 GMT+0000 (Coordinated Universal Time)

1 40617U 15023A 26251.09900650 .00000083 00000+0 00000+0 0 9993 2 40617 0.0189 106.9583 0002990 67.3625 260.5043 1.00270670 41670
UTC large
Height (km)
Speed (km/s)
/
Latitude / Longitude
Inclination (degrees)
Orbital Period (minutes)
Azimuth
Elevation
Range (km)
Doppler Factor

Next 0 passes for location: London (51.5072 / 0.1276)

No passes found over London.
TURKMENALEM52E/MONACOSAT